Hourly Weather Bolshoe Mihaylovskoe

Today, 4 August, Wednesday

Time Temperature Precipitation Wind Pressure Humidity
00:00 +15°C° 0 mm 2 mps 745 mmHg 75%
01:00 +14°C° 0 mm 2 mps 745 mmHg 77%
02:00 +14°C° 0 mm 2 mps 745 mmHg 80%
03:00 +14°C° 0 mm 2 mps 746 mmHg 83%
04:00 +14°C° 0 mm 2 mps 746 mmHg 83%
05:00 +14°C° 0 mm 2 mps 746 mmHg 83%
06:00 +14°C° 0 mm 1 mps 747 mmHg 83%
07:00 +16°C° 0 mm 2 mps 747 mmHg 73%
08:00 +18°C° 0 mm 2 mps 747 mmHg 63%
09:00 +19°C° 0 mm 3 mps 747 mmHg 54%
10:00 +21°C° 0 mm 3 mps 748 mmHg 49%
11:00 +22°C° 0 mm 3 mps 748 mmHg 44%
12:00 +24°C° 0 mm 3 mps 748 mmHg 40%
13:00 +22°C° 0 mm 3 mps 748 mmHg 42%
14:00 +22°C° 0 mm 3 mps 748 mmHg 44%
15:00 +21°C° 0 mm 2 mps 748 mmHg 46%
16:00 +21°C° 0 mm 2 mps 748 mmHg 49%
17:00 +20°C° 0 mm 2 mps 748 mmHg 51%
18:00 +20°C° 0 mm 2 mps 748 mmHg 54%
19:00 +20°C° 0 mm 1 mps 748 mmHg 57%
20:00 +19°C° 0 mm 1 mps 748 mmHg 60%
21:00 +18°C° 0 mm 1 mps 749 mmHg 63%
22:00 +16°C° 0 mm 1 mps 749 mmHg 65%
23:00 +15°C° 0 mm 1 mps 749 mmHg 68%

Tomorrow, 5 August, Thursday

Time Temperature Precipitation Wind Pressure Humidity
00:00 +14°C° 0 mm 0 mps 749 mmHg 70%
01:00 +13°C° 0 mm 0 mps 749 mmHg 73%
02:00 +13°C° 0 mm 0 mps 749 mmHg 77%
03:00 +12°C° 0 mm 0 mps 749 mmHg 80%
04:00 +13°C° 0 mm 0 mps 749 mmHg 79%
05:00 +13°C° 0 mm 0 mps 749 mmHg 78%
06:00 +14°C° 0 mm 0 mps 750 mmHg 77%
07:00 +15°C° 0 mm 0 mps 750 mmHg 70%
08:00 +19°C° 0 mm 1 mps 750 mmHg 64%
09:00 +21°C° 0 mm 1 mps 750 mmHg 57%
10:00 +22°C° 0 mm 1 mps 749 mmHg 54%
11:00 +22°C° 0 mm 1 mps 749 mmHg 51%
12:00 +23°C° 0 mm 1 mps 749 mmHg 48%
13:00 +23°C° 0 mm 1 mps 749 mmHg 48%
14:00 +23°C° 0 mm 2 mps 749 mmHg 49%
15:00 +23°C° 0 mm 2 mps 749 mmHg 50%
16:00 +20°C° 0.1 mm 2 mps 749 mmHg 60%
17:00 +19°C° 0.1 mm 1 mps 749 mmHg 70%
18:00 +18°C° 0.1 mm 1 mps 749 mmHg 81%
19:00 +16°C° 0.5 mm 1 mps 749 mmHg 85%
20:00 +15°C° 0.5 mm 1 mps 748 mmHg 90%
21:00 +15°C° 0.5 mm 1 mps 748 mmHg 95%
22:00 +15°C° 0.1 mm 1 mps 748 mmHg 96%
23:00 +15°C° 0.1 mm 1 mps 748 mmHg 96%

Day after tomorrow, 6 August, Friday

Time Temperature Precipitation Wind Pressure Humidity
00:00 +14°C° 0.1 mm 2 mps 748 mmHg 96%
01:00 +15°C° 0.1 mm 2 mps 748 mmHg 96%
02:00 +15°C° 0.1 mm 2 mps 747 mmHg 96%
03:00 +15°C° 0.1 mm 2 mps 747 mmHg 96%
04:00 +15°C° 0.9 mm 2 mps 747 mmHg 97%
05:00 +15°C° 0.9 mm 2 mps 747 mmHg 97%
06:00 +15°C° 0.9 mm 2 mps 747 mmHg 98%
07:00 +15°C° 0.7 mm 2 mps 747 mmHg 98%
08:00 +16°C° 0.7 mm 2 mps 747 mmHg 97%
09:00 +16°C° 0.7 mm 2 mps 747 mmHg 97%
10:00 +16°C° 0.1 mm 2 mps 747 mmHg 94%
11:00 +17°C° 0.1 mm 2 mps 747 mmHg 92%
12:00 +18°C° 0.1 mm 2 mps 747 mmHg 89%
13:00 +20°C° 0.1 mm 1 mps 747 mmHg 83%
14:00 +21°C° 0.1 mm 1 mps 747 mmHg 78%
15:00 +22°C° 0.1 mm 1 mps 747 mmHg 72%
16:00 +22°C° 0.5 mm 1 mps 747 mmHg 78%
17:00 +20°C° 0.5 mm 2 mps 747 mmHg 84%
18:00 +19°C° 0.5 mm 2 mps 747 mmHg 90%
19:00 +19°C° 0.4 mm 2 mps 747 mmHg 92%
20:00 +18°C° 0.4 mm 2 mps 747 mmHg 95%
21:00 +17°C° 0.4 mm 2 mps 747 mmHg 97%
22:00 +17°C° 0.3 mm 2 mps 748 mmHg 97%
23:00 +16°C° 0.3 mm 2 mps 748 mmHg 98%

7 August, Saturday

Time Temperature Precipitation Wind Pressure Humidity
00:00 +16°C° 0.3 mm 3 mps 748 mmHg 98%
01:00 +16°C° 0.2 mm 3 mps 748 mmHg 98%
02:00 +16°C° 0.2 mm 3 mps 748 mmHg 98%
03:00 +16°C° 0.2 mm 3 mps 748 mmHg 98%
04:00 +16°C° 0.7 mm 3 mps 748 mmHg 98%
05:00 +15°C° 0.7 mm 4 mps 748 mmHg 98%
06:00 +15°C° 0.7 mm 4 mps 747 mmHg 98%
07:00 +15°C° 0.3 mm 4 mps 747 mmHg 97%
08:00 +16°C° 0.3 mm 5 mps 747 mmHg 96%
09:00 +16°C° 0.3 mm 5 mps 747 mmHg 95%
10:00 +19°C° 0.1 mm 5 mps 747 mmHg 87%
11:00 +20°C° 0.1 mm 5 mps 747 mmHg 80%
12:00 +22°C° 0.1 mm 5 mps 747 mmHg 72%
13:00 +23°C° 0.3 mm 5 mps 747 mmHg 70%
14:00 +25°C° 0.3 mm 4 mps 746 mmHg 67%
15:00 +25°C° 0.3 mm 4 mps 746 mmHg 65%
16:00 +23°C° 0.2 mm 4 mps 746 mmHg 69%
17:00 +22°C° 0.2 mm 3 mps 746 mmHg 74%
18:00 +21°C° 0.2 mm 3 mps 746 mmHg 78%
19:00 +20°C° 0.5 mm 3 mps 746 mmHg 84%
20:00 +19°C° 0.5 mm 3 mps 746 mmHg 90%
21:00 +18°C° 0.5 mm 3 mps 747 mmHg 95%
22:00 +18°C° 0.7 mm 3 mps 747 mmHg 96%
23:00 +17°C° 0.7 mm 3 mps 746 mmHg 96%

8 August, Sunday

Time Temperature Precipitation Wind Pressure Humidity
00:00 +17°C° 0.7 mm 3 mps 746 mmHg 97%
01:00 +17°C° 0.5 mm 2 mps 746 mmHg 97%
02:00 +17°C° 0.5 mm 2 mps 746 mmHg 97%
03:00 +18°C° 0.5 mm 1 mps 746 mmHg 98%
04:00 +17°C° 0.4 mm 2 mps 746 mmHg 98%
05:00 +18°C° 0.4 mm 2 mps 746 mmHg 98%
06:00 +18°C° 0.4 mm 2 mps 747 mmHg 97%
07:00 +19°C° 0.1 mm 2 mps 747 mmHg 95%
08:00 +20°C° 0.1 mm 3 mps 747 mmHg 93%
09:00 +21°C° 0.1 mm 3 mps 747 mmHg 91%
10:00 +22°C° 0.1 mm 3 mps 747 mmHg 85%
11:00 +22°C° 0.1 mm 3 mps 748 mmHg 78%
12:00 +24°C° 0.1 mm 2 mps 748 mmHg 72%
13:00 +25°C° 0 mm 3 mps 748 mmHg 63%
14:00 +26°C° 0 mm 3 mps 748 mmHg 54%
15:00 +27°C° 0 mm 3 mps 748 mmHg 44%
16:00 +27°C° 0 mm 2 mps 748 mmHg 47%
17:00 +26°C° 0 mm 2 mps 749 mmHg 50%
18:00 +26°C° 0 mm 1 mps 749 mmHg 53%
19:00 +24°C° 0 mm 1 mps 749 mmHg 59%
20:00 +22°C° 0 mm 1 mps 749 mmHg 65%
21:00 +19°C° 0 mm 1 mps 750 mmHg 71%
22:00 +19°C° 0 mm 1 mps 750 mmHg 74%
23:00 +18°C° 0 mm 1 mps 750 mmHg 76%

9 August, Monday

Time Temperature Precipitation Wind Pressure Humidity
00:00 +16°C° 0 mm 1 mps 750 mmHg 79%
01:00 +16°C° 0 mm 1 mps 750 mmHg 81%
02:00 +15°C° 0 mm 0 mps 751 mmHg 82%
03:00 +14°C° 0 mm 0 mps 751 mmHg 84%
04:00 +15°C° 0 mm 0 mps 751 mmHg 84%
05:00 +15°C° 0 mm 0 mps 751 mmHg 83%
06:00 +15°C° 0 mm 0 mps 751 mmHg 82%
07:00 +17°C° 0 mm 0 mps 751 mmHg 75%
08:00 +19°C° 0 mm 0 mps 751 mmHg 67%
09:00 +24°C° 0 mm 1 mps 751 mmHg 59%
10:00 +25°C° 0 mm 1 mps 751 mmHg 54%
11:00 +26°C° 0 mm 1 mps 751 mmHg 49%
12:00 +28°C° 0 mm 1 mps 751 mmHg 44%
13:00 +28°C° 0 mm 1 mps 751 mmHg 42%
14:00 +29°C° 0 mm 1 mps 751 mmHg 40%
15:00 +29°C° 0 mm 1 mps 751 mmHg 38%
16:00 +29°C° 0.1 mm 1 mps 751 mmHg 44%
17:00 +28°C° 0.1 mm 1 mps 751 mmHg 50%
18:00 +28°C° 0.1 mm 1 mps 751 mmHg 57%
19:00 +26°C° 0 mm 1 mps 750 mmHg 59%
20:00 +24°C° 0 mm 1 mps 750 mmHg 62%
21:00 +23°C° 0 mm 2 mps 750 mmHg 65%
22:00 +21°C° 0.3 mm 2 mps 750 mmHg 71%
23:00 +20°C° 0.3 mm 2 mps 750 mmHg 77%
Show more

We Need Your Consent

Meteoprog and our Service Providers may store and access personal data such as cookies, device identifiers or other similar technologies on your device and process such data to personalise content and ads, as well as provide social media features and to analyse the traffic.

  • Store and/or access information on your device

    Cookies, device identifiers or other information can be stored or accessed on your device for the purposes indicated above.

  • Personalised ads and content, ad and content measurement, audience insights, and products development

    Ads and content can be personalised based on a profile. More data can be added to better personalise ads and content. Ad and content performance can be measured. Insights about the audience who saw the ads and content can be derived. Such data can be used to develop or improve user’s experience, systems and software.

By clicking ‘I Agree’ you will allow the use of indicated cookies, device identifiers, web beacons or other similar technologies. Your settings can be changed in the browser on your device.

For certain purposes, legitimate interests may be relied on, rather than consent. You can read more about this in our Privacy and Cookie Policy.